DW6648 Weather Reports


Display with metric or nautical units.
time (UTC)temp
F
wind
direction
speed
MPH
gust
MPH
rain 1hr
in
rain 24hr
in
rain mn
in
humidity
%
barometer
mb
20260507202816 54 97 0.0 0.0 0.00 0.00 0.00 75 1014.8
20260507200315 55 130 0.0 0.0 0.00 0.00 0.00 74 1014.6
20260507194815 55 89 0.0 0.0 0.00 0.00 0.00 73 1014.3
20260507193815 55 109 0.0 0.0 0.00 0.00 0.00 73 1014.2
20260507193315 55 125 0.0 0.0 0.00 0.00 0.00 73 1014.1
20260507192815 55 89 0.0 0.0 0.00 0.00 0.00 72 1014.2
20260507192315 55 121 0.0 0.0 0.00 0.00 0.00 72 1014.3
20260507190314 56 145 0.0 0.0 0.00 0.00 0.00 67 1014.4
20260507183815 57 187 0.0 0.0 0.00 0.00 0.00 64 1014.3
20260507183315 57 185 0.0 0.0 0.00 0.00 0.00 64 1014.2
20260507175814 58 179 0.0 0.0 0.00 0.00 0.00 57 1014.2
20260507175314 58 180 0.0 0.0 0.00 0.00 0.00 54 1014.1
20260507174814 59 179 0.0 0.0 0.00 0.00 0.00 54 1014.2
20260507173814 59 195 0.0 0.0 0.00 0.00 0.00 53 1014.2
20260507173314 59 181 0.0 0.0 0.00 0.00 0.00 54 1014.1
20260507172813 59 188 0.0 0.0 0.00 0.00 0.00 53 1014.1
20260507172313 59 169 0.0 0.0 0.00 0.00 0.00 53 1014.2
20260507170813 61 190 0.0 0.0 0.00 0.00 0.00 51 1014.2
20260507165813 61 185 0.0 0.0 0.00 0.00 0.00 49 1014.3
20260507164313 62 178 0.0 0.0 0.00 0.00 0.00 47 1014.2
20260507163813 63 172 0.0 0.0 0.00 0.00 0.00 47 1014.2
20260507163313 63 129 0.0 0.0 0.00 0.00 0.00 47 1014.1
20260507162812 63 159 0.0 0.0 0.00 0.00 0.00 46 1014.3
20260507162312 62 167 0.0 0.0 0.00 0.00 0.00 51 1014.2
20260507161812 62 186 0.0 0.0 0.00 0.00 0.00 51 1014.3
20260507160311 63 186 0.0 0.0 0.00 0.00 0.00 52 1014.4
20260507155311 63 182 0.0 0.0 0.00 0.00 0.00 50 1014.4
20260507154311 63 180 0.0 0.0 0.00 0.00 0.00 51 1014.5
20260507152810 63 176 0.0 0.0 0.00 0.00 0.00 49 1014.5
20260507150810 63 183 0.0 0.0 0.00 0.00 0.00 51 1014.7
20260507145809 63 156 0.0 0.0 0.00 0.00 0.00 51 1014.7
20260507144810 63 175 0.0 0.0 0.00 0.00 0.00 52 1014.7
20260507144310 64 182 0.0 0.0 0.00 0.00 0.00 52 1014.6
20260507143310 63 190 0.0 0.0 0.00 0.00 0.00 56 1014.7
20260507142810 63 186 0.0 0.0 0.00 0.00 0.00 55 1014.8
20260507142309 62 132 0.0 0.0 0.00 0.00 0.00 56 1014.8
20260507141809 63 165 0.0 0.0 0.00 0.00 0.00 56 1014.9
20260507141310 63 163 0.0 0.0 0.00 0.00 0.00 56 1014.9
20260507140309 63 181 0.0 0.0 0.00 0.00 0.00 56 1015.1
20260507135309 63 170 0.0 0.0 0.00 0.00 0.00 54 1014.9
20260507133809 63 143 0.0 0.0 0.00 0.00 0.00 53 1014.9
20260507132809 64 162 0.0 0.0 0.00 0.00 0.00 51 1014.9
20260507131808 64 125 0.0 0.0 0.00 0.00 0.00 52 1014.8
20260507125308 63 166 0.0 0.0 0.00 0.00 0.00 52 1014.9
20260507124308 63 202 0.0 0.0 0.00 0.00 0.00 53 1014.9
20260507122308 62 203 0.0 0.0 0.00 0.00 0.00 56 1015.0
20260507120808 62 163 0.0 0.0 0.00 0.00 0.00 57 1015.0
20260507120307 61 172 0.0 0.0 0.00 0.00 0.00 56 1015.0
20260507115806 62 175 0.0 0.0 0.00 0.00 0.00 56 1015.1
20260507114806 63 193 0.0 0.0 0.00 0.00 0.00 54 1015.1
20260507114306 63 184 0.0 0.0 0.00 0.00 0.00 55 1015.1
20260507113306 63 190 0.0 0.0 0.00 0.00 0.00 56 1015.0
20260507112307 62 202 0.0 0.0 0.00 0.00 0.00 60 1015.1
20260507110306 61 155 0.0 0.0 0.00 0.00 0.00 60 1015.2
20260507105805 61 189 0.0 0.0 0.00 0.00 0.00 61 1015.2
20260507103305 60 186 0.0 0.0 0.00 0.00 0.00 62 1015.2
20260507102806 60 174 0.0 0.0 0.00 0.00 0.00 64 1015.2
20260507102307 60 211 0.0 0.0 0.00 0.00 0.00 64 1015.1
20260507100305 59 195 0.0 0.0 0.00 0.00 0.00 67 1015.2
20260507095805 59 156 0.0 0.0 0.00 0.00 0.00 68 1015.2
20260507095306 58 188 0.0 0.0 0.00 0.00 0.00 68 1015.2
20260507094804 58 169 0.0 0.0 0.00 0.00 0.00 69 1015.2
20260507094304 58 165 0.0 0.0 0.00 0.00 0.00 69 1015.1
20260507092306 57 194 0.0 0.0 0.00 0.00 0.00 71 1015.2
20260507082831 55 111 0.0 0.0 0.00 0.00 0.00 78 1015.2
20260507082331 55 138 0.0 0.0 0.00 0.00 0.00 78 1015.2
20260507081330 53 115 0.0 0.0 0.00 0.00 0.00 78 1015.2
20260507075830 52 101 0.0 0.0 0.00 0.00 0.00 78 1015.3
20260507074329 51 107 0.0 0.0 0.00 0.00 0.00 79 1015.2
20260507073829 51 87 0.0 0.0 0.00 0.00 0.00 79 1015.2
20260507073330 51 102 0.0 0.0 0.00 0.00 0.00 80 1015.1
20260507072329 50 137 0.0 0.0 0.00 0.00 0.00 81 1015.1
20260507071830 50 122 0.0 0.0 0.00 0.00 0.00 82 1015.1
20260507070329 48 83 0.0 0.0 0.00 0.00 0.00 83 1014.9
20260507063330 46 109 0.0 0.0 0.00 0.00 0.00 83 1014.8
20260507062828 46 109 0.0 0.0 0.00 0.00 0.00 83 1014.8
20260507062329 46 109 0.0 0.0 0.00 0.00 0.00 83 1014.8
20260507060830 45 122 0.0 0.0 0.00 0.00 0.00 83 1014.7
20260507060328 45 87 0.0 0.0 0.00 0.00 0.00 83 1014.6
20260507055827 45 110 0.0 0.0 0.00 0.00 0.00 83 1014.5
20260507055328 45 32 0.0 0.0 0.00 0.00 0.00 83 1014.5
20260507054827 45 32 0.0 0.0 0.00 0.00 0.00 83 1014.6
20260507054327 45 32 0.0 0.0 0.00 0.00 0.00 83 1014.6
20260507052827 44 5 0.0 0.0 0.00 0.00 0.00 83 1014.5
20260507052327 44 1 0.0 0.0 0.00 0.00 0.00 82 1014.6
20260507051827 44 340 0.0 0.0 0.00 0.00 0.00 82 1014.6
20260507051326 44 346 0.0 0.0 0.00 0.00 0.00 82 1014.6
20260507050326 44 44 0.0 0.0 0.00 0.00 0.00 82 1014.4
20260507044327 44 116 0.0 0.0 0.00 0.00 0.00 82 1014.5
20260507043827 44 115 0.0 0.0 0.00 0.00 0.00 82 1014.4
20260507042826 44 116 0.0 0.0 0.00 0.01 0.00 82 1014.4
20260507042326 44 115 0.0 0.0 0.00 0.01 0.00 81 1014.4
20260507041826 44 115 0.0 0.0 0.00 0.02 0.00 81 1014.4
20260507041326 44 115 0.0 0.0 0.00 0.02 0.00 81 1014.3
20260507032324 44 115 0.0 0.0 0.00 0.03 0.00 80 1014.4
20260507030824 44 115 0.0 0.0 0.00 0.03 0.00 80 1014.4
20260507024823 44 115 0.0 0.0 0.00 0.03 0.00 80 1014.2
20260507024323 44 115 0.0 0.0 0.00 0.03 0.00 80 1014.1
20260507023824 44 114 0.0 0.0 0.00 0.03 0.00 80 1014.1
20260507023323 44 114 0.0 0.0 0.00 0.03 0.00 79 1014.1
20260507022824 44 102 0.0 0.0 0.00 0.03 0.00 79 1014.1
20260507020823 44 42 0.0 0.0 0.00 0.03 0.00 80 1014.1
20260507020323 44 92 0.0 0.0 0.00 0.03 0.00 80 1014.1
20260507015822 44 97 0.0 0.0 0.00 0.03 0.00 80 1014.1
20260507015322 44 48 0.0 0.0 0.00 0.03 0.00 79 1014.1
20260507014822 44 68 0.0 0.0 0.00 0.03 0.00 79 1014.1
20260507014322 44 11 0.0 0.0 0.00 0.03 0.00 79 1014.1
20260507012321 44 86 0.0 0.0 0.00 0.03 0.00 77 1014.1
20260507011821 44 86 0.0 0.0 0.00 0.03 0.00 77 1014.1
20260507010821 44 86 0.0 0.0 0.00 0.03 0.00 76 1014.1
20260507010321 44 86 0.0 0.0 0.00 0.03 0.00 76 1014.1
20260507005821 44 86 0.0 0.0 0.00 0.03 0.00 76 1014.0
20260507004821 45 85 0.0 0.0 0.00 0.03 0.00 75 1014.0
20260507003322 45 86 0.0 0.0 0.00 0.03 0.00 75 1014.0
20260507001822 46 86 0.0 0.0 0.00 0.03 0.00 75 1014.1
20260507001322 46 86 0.0 0.0 0.00 0.03 0.00 74 1014.1
20260507000821 46 86 0.0 0.0 0.00 0.03 0.00 74 1014.1
20260507000322 46 86 0.0 0.0 0.00 0.03 0.00 74 1014.1
20260506234820 47 89 0.0 0.0 0.00 0.03 0.00 74 1014.1
20260506233820 48 73 0.0 0.0 0.00 0.03 0.00 73 1014.0
20260506232819 48 73 0.0 0.0 0.00 0.03 0.00 73 1014.0
20260506230828 49 73 0.0 0.0 0.00 0.03 0.00 73 1014.1
20260506230319 49 73 0.0 0.0 0.00 0.03 0.00 73 1014.0
20260506225319 50 73 0.0 0.0 0.00 0.03 0.03 73 1014.0
20260506224319 50 36 0.0 0.0 0.00 0.03 0.03 73 1014.1
20260506223319 51 36 0.0 0.0 0.00 0.03 0.03 73 1014.0
20260506222820 51 36 0.0 0.0 0.00 0.03 0.03 73 1014.0
20260506221819 51 313 0.0 0.0 0.00 0.03 0.03 73 1014.0
20260506221319 51 313 0.0 0.0 0.00 0.03 0.03 72 1014.0
20260506220819 51 314 0.0 0.0 0.00 0.03 0.03 72 1014.0
20260506215818 52 314 0.0 0.0 0.00 0.03 0.03 72 1013.9
20260506214818 52 314 0.0 0.0 0.00 0.03 0.03 71 1013.8
20260506213818 52 313 0.0 0.0 0.00 0.03 0.03 71 1013.9
20260506213319 53 313 0.0 0.0 0.00 0.03 0.03 71 1013.8
20260506212818 53 313 0.0 0.0 0.00 0.03 0.03 71 1013.9
20260506212318 53 313 0.0 0.0 0.00 0.03 0.03 71 1013.9
20260506211318 53 313 0.0 0.0 0.00 0.03 0.03 71 1013.8
20260506210317 53 313 0.0 0.0 0.00 0.03 0.03 71 1013.8
20260506205817 53 314 0.0 0.0 0.00 0.03 0.03 70 1013.8
20260506205317 53 313 0.0 0.0 0.00 0.03 0.03 70 1013.8
20260506204817 53 316 0.0 0.0 0.00 0.03 0.03 69 1013.8
20260506204318 54 317 0.0 0.0 0.00 0.03 0.03 69 1013.8
20260506203817 54 310 0.0 0.0 0.00 0.03 0.03 69 1013.7
20260506203317 54 303 0.0 0.0 0.00 0.03 0.03 68 1013.6